Location: C.E.K. Mees Observatory
(42.7003°N, 77.4088°W)
Time: 23:32:49
(UTC-05:00)

Envisat - Pass Details

Date: 15 October 2017
Orbit: 764 x 766 km, 98.2° (Epoch: 13 December)

Event Time Altitude Azimuth Distance (km) Brightness Sun altitude
Exits shadow 19:43:05 20° 69° (ENE) 1,711 4.3 -14.8°
Maximum altitude 19:43:28 20° 63° (ENE) 1,704 4.3 -14.8°
Drops below altitude 10° 19:47:07 10° 17° (NNE) 2,313 5.3 -15.5°
Sets 19:49:57 0° 1° (N) 3,244 6.3 -16.0°
